User: anonymous   Login
Location: Buckenweiler
(49.0667°N, 10.2500°E)
Time: 14:03:07
(UTC+00:00)
Language:

Meteor 1-24 Rocket - Orbit

View from above orbital plane
View from above orbital plane
View from above satellite
View from above satellite

Ground track
Ground track

The orbit is defined by the following mean orbital elements,

1 08800U          26074.25566876 +.00000000 +00000-0 +26067-4 0 00008
2 08800  81.2541 350.0893 0094199 142.4319 218.3485 14.10651694    01
Epoch (UTC): 15 March 2026 06:08:09
Eccentricity: 0.0094199
inclination: 81.2541°
perigee height: 789 km
apogee height: 925 km
right ascension of ascending node: 350.0893°
argument of perigee: 142.4319°
revolutions per day: 14.10651694
mean anomaly at epoch: 218.3485°

The dashed part of the orbit path shows where the satellite is in the earth's shadow,  

DLR